Regional Weather Roundup
Issued by NWS

Home | Current Version | Previous Version | Text Only | Print | Product List | Glossary On
Versions: 1 2 3 4 5 6 7 8 9 10 11 12 13 14 15 16 17 18 19 20 21 22 23 24 25 26 27 28 29 30 31 32 33 34 35 36 37 38 39 40 41 42 43 44 45 46 47 48 49 50
613
ASUS44 KLIX 251601
RWRLA
LOUISIANA WEATHER ROUNDUP
NATIONAL WEATHER SERVICE NEW ORLEANS LA
1100 AM CDT SAT OCT 25 2014

NOTE: "FAIR" INDICATES FEW OR NO CLOUDS BELOW 12,000 FEET WITH NO
      SIGNIFICANT WEATHER AND/OR OBSTRUCTIONS TO VISIBILITY.
      SKY/WX - SKY CONDITION AND SIGNIFICANT WEATHER.
      TMP - AIR TEMPERATURE.    DP   - DEWPOINT TEMPERATURE.
      RH  - RELATIVE HUMIDITY.  PRES - PRESSURE.
      HX  - HEAT INDEX.         WCI  - WIND CHILL INDEX.

*  THESE STATIONS ARE NOT NWS OR FAA STATIONS AND ARE NOT UNDER
   NWS QUALITY CONTROL.

LAZ040-048-061>063-065-066-069-251700-
SOUTHEAST LOUISIANA

CITY           SKY/WX    TMP DP  RH WIND       PRES   REMARKS
N.O. AUDUBON     N/A     76  53  44 MISG        N/A
N.O. INTL ARPT SUNNY     71  52  50 NE7       30.17R
N.O. LAKEFRONT SUNNY     69  53  56 NE6       30.17S
N.O. DOWNTOWN* FAIR      70  48  46 NE6       30.17S
SLIDELL        SUNNY     72  52  49 VRB7      30.16S
BATON ROUGE    SUNNY     72  52  49 NE6       30.18S
BOOTHVILLE     SUNNY     72  55  55 NE8       30.15S
BELLE CHASSE   SUNNY     72  51  47 NE9       30.16S
BOGALUSA*      FAIR      73  52  48 NE7       30.18S
NEW ROADS*     FAIR      70  52  51 CALM      30.18S
GONZALES*      FAIR      70  53  53 NE5       30.17S
HAMMOND*       NOT AVBL
HOUMA*         SUNNY     72  54  53 NE9       30.17R
PORT FOURCHON* SUNNY     72  52  49 NE12      30.19S

$$

LAZ041-044-053-054-251700-
SOUTHWEST LOUISIANA

CITY           SKY/WX    TMP DP  RH WIND       PRES   REMARKS
LAKE CHARLES   SUNNY     71  52  50 NE5       30.19S
LAFAYETTE      SUNNY     71  51  49 CALM      30.18S
PATTERSON      SUNNY     72  54  53 NE6       30.20S
SALT POINT       N/A     73  52  47 VRB5      30.16S
NEW IBERIA     SUNNY     73  51  46 N5        30.18F
CHENAULT AIRPK SUNNY     70  52  52 CALM      30.19S

$$

LAZ027-028-251700-
CENTRAL LOUISIANA

CITY           SKY/WX    TMP DP  RH WIND       PRES   REMARKS
FORT POLK      SUNNY     72  55  54 W2        30.18S
ALEXANDRIA INT SUNNY     70  54  56 CALM      30.17S
ALEXANDRIA     SUNNY     71  56  58 VRB5      30.18S

$$

LAZ001-002-251700-
NORTHWEST LOUISIANA

CITY           SKY/WX    TMP DP  RH WIND       PRES   REMARKS
SHREVEPORT     SUNNY     75  60  59 W7        30.17S
BARKSDALE AFB  SUNNY     74  58  57 VRB1      30.18S
DTN SHREVEPORT SUNNY     72  57  59 W7        30.18S

$$

LAZ014-016-251700-
NORTHEAST LOUISIANA

CITY           SKY/WX    TMP DP  RH WIND       PRES   REMARKS
MONROE         SUNNY     72  56  57 SW3       30.18F
TALLULAH       SUNNY     71  56  58 VRB3      30.19R

$$




USA.gov is the U.S. government's official web portal to all federal, state and local government web resources and services.